Location: Finnegan
(51.1333°N, 112.0833°W)
Time: 18:42:56
(UTC+00:00)

BlueWalker 3 - Visible Passes

Search period start: 08 December 2022 00:00
Search period end: 18 December 2022 00:00
Orbit: 501 x 518 km, 53.2° (Epoch: 08 December)

Date Brightness Start Highest point End Pass type
(mag) Time Alt. Az. Time Alt. Az. Time Alt. Az.
08 Dec 2.4 01:38:31 10° WNW 01:42:22 57° SSW 01:43:20 42° SSE visible
09 Dec 2.6 01:20:07 10° WNW 01:23:57 54° SSW 01:26:07 23° SE visible
09 Dec 5.0 02:59:58 10° WSW 03:00:59 13° WSW 03:00:59 13° WSW visible
10 Dec 2.7 01:01:42 10° WNW 01:05:32 52° SSW 01:09:06 11° SE visible
10 Dec 4.8 02:41:42 10° WSW 02:43:29 13° SW 02:43:58 13° SW visible
11 Dec 2.8 00:43:17 10° WNW 00:47:06 50° SSW 00:50:52 10° SE visible
11 Dec 4.9 02:23:28 10° WSW 02:25:01 12° SW 02:26:34 10° SSW visible
12 Dec 3.0 00:24:52 10° WNW 00:28:39 48° SSW 00:32:24 10° SE visible
12 Dec 5.1 02:05:16 10° WSW 02:06:33 11° SW 02:07:50 10° SSW visible
13 Dec 3.2 00:06:26 10° WNW 00:10:12 46° SSW 00:13:56 10° SE visible
13 Dec 5.2 01:47:09 10° WSW 01:48:05 11° SW 01:49:00 10° SW visible
14 Dec 5.5 01:29:23 10° SW 01:29:36 10° SW 01:29:49 10° SW visible
